Showing default

GLOBALSTAR M001, 25162

Orbit data source: Space-Track

GLOBALSTAR M001, 25162 is a payload satellite owned by Globalstar (US) in LEO that was launched on Sat, 14 Feb 1998 UTC via a DELTA 7420-10C launch vehicle from the Air Force Eastern Test Range (AFETR). Payloads include a variety of satellites, spacecraft, and rockets equipped with specific instruments for various scientific and technological missions. These include communications satellites like Starlink; space stations such as the ISS; scientific satellites like the Hubble; Earth observation satellites from companies like Planet Labs, Umbra, and HawkEye 360; GPS; miniature CubeSats for education and research; and military/defense satellites.

Loading next visibility...
GLOBALSTAR M001 details
Identifier
25162, 1998-008A
Orbit
LEO
Last TLE update6 hours ago
Origin
Flag of USGlobalstar (US / GLOB)
ManufacturerSS/Loral
MissionNon-operational Commercial Communications
Bus & MotorLS-400, Unknown motor
Mass450 kg wet, 380 kg dry
Launch date (UTC)
1998-02-14 (27 years ago)
Launch vehicle
DELTA 7420-10C
Launch site
Air Force Eastern Test Range (AFETR)
Object type
Payload
Rocket body
Debris
Shape & HBRBox + 2 Pan, 12 m
Radar Cross Section5.587 m², Large (>1 m²)

Expand to show TLE details & history

TLE from 6 hours ago
0 GLOBALSTAR M001
1 25162U 98008A   24361.59714946 -.00000097  00000-0 -47739-5 0  9995
2 25162  52.0026 115.5583 0001172 204.1804 169.6630 12.38204663222339
Epoch: 2024-12-26T14:19Z
Definitive object data (Epoch: 2024-12-26T14:19:53.713Z)
Latitude10.86179°
Longitude173.58882°
Altitude1,515.061 km
Speed7.109 km/s
True Right ascension08h 16m 32s
True Declination10° 48' 16"
Sunlit
Object was in full shadow at TLE epoch
Visualization TLE readout
Latitude24.71112°
Longitude-174.74468°
Altitude1,515.934 km
Speed7.11 km/s
Apparent Right ascension08h 28m 26s
Apparent Declination-3° 47' 38"
Sunlit
Object is in full shadow
Visualization observer readout
Local Sidereal Time19:37:15
Azimuth338.936° N
Elevation-52.07°
Doppler factor1
Orbital elements
Apogee altitude1,515.535 km
Perigee altitude1,513.685 km
Semi-major axis7,892.747 km
Eccentricity0.0001172
Inclination52.0026°
RAAN115.5583°
Arg. of periapsis204.1804°
True anomaly169.66541°
Mean anomaly169.663°
Eccentric anomaly169.6642°
Mean motion3.09529 °/min
BSTAR-0.0000047739
Orbital period116.31 mins
Loading maneuver chart data...
Loading historical data...
Loading historical data...
Loading historical data...
Loading historical data...
Loading historical data...
Loading historical data...
Loading historical data...

GLOBALSTAR M001 Visibility forecast

Observer location: undefined°, undefined

Span
Click to sort rows by Start time (UTC) header in descending order
Start Az.
Max El. time (UTC)
Max El. Az.
Max El.
End time (UTC)
End Az.
4 mins2024-12-27 07:50:28.257Z127.726° SE2024-12-27 07:52:28.257Z114.464° SE11.385°2024-12-27 07:54:28.257Z101.288° ESE
16 mins2024-12-27 09:45:28.257Z203.415° SW2024-12-27 09:52:28.257Z140.575° SSE39.35°2024-12-27 10:01:28.257Z58.179° ENE
16 mins2024-12-27 11:47:28.257Z257.066° W2024-12-27 11:55:28.257Z342.205° N40.327°2024-12-27 12:03:28.257Z50.486° ENE
14 mins2024-12-27 13:52:28.257Z298.793° NW2024-12-27 13:59:28.257Z5.137° NNE32.013°2024-12-27 14:06:28.257Z62.345° ENE
16 mins2024-12-27 15:55:28.257Z311.167° NW2024-12-27 16:03:28.257Z35.116° NE39.018°2024-12-27 16:11:28.257Z100.49° ESE
15 mins2024-12-27 17:58:28.257Z300.421° NW2024-12-27 18:05:28.257Z225.659° WSW41.455°2024-12-27 18:13:28.257Z150.056° SSE
6 mins2024-12-27 20:03:28.257Z261.655° W2024-12-27 20:06:28.257Z240.583° WSW13.9°2024-12-27 20:09:28.257Z220.066° SW
|